Location: McFarlands Corners
(41.4117°N, 81.3382°W)
Time: 14:26:29
(UTC+00:00)

Tiros 1 despin weight - Pass Details

Date: 17 February 2026
Orbit: 556 x 593 km, 48.2° (Epoch: 11 March)

Event Time Altitude Azimuth Distance (km) Brightness Sun altitude
Rises 02:50:18 0° 295° (WNW) 2,737 ? -42.9°
Enters shadow 02:51:11 - 294° (WNW) 2,388 ? -43.0°
Reaches altitude 10° 02:52:36 10° 290° (WNW) 1,842 - -43.3°
Maximum altitude 02:56:39 48° 216° (SW) 731 - -43.9°
Drops below altitude 10° 03:00:44 10° 141° (SE) 1,850 - -44.6°
Sets 03:03:02 0° 136° (SE) 2,750 - -45.0°
